Probability
0 0 0 0 0 0 0 0 0 0 0 0 0 0 0 0 0 0 0 0 0 0 0 0 0 0 0 0 0 0 0 0 16 23 26 16 6 0 0 0 0 0 0 0
0 0 0 0 0 0 0 0 0 0 0 0 0 0 0 0 0 0 0 0 0 0 0 0 0 0 0 0 0 0 0 0 0 10 10 13 10 6 0 0 3 0 0 0
0 0 0 0 0 0 0 0 0 0 0 0 0 0 0 0 0 0 0 0 0 0 0 0 0 0 0 0 0 0 0 0 0 0 0 6 10 10 3 0 3 0 3 0
0 0 0 0 0 0 0 0 0 0 0 0 0 0 0 0 0 0 0 0 0 0 0 0 0 0 0 0 0 0 0 0 0 0 0 0 0 0 0 10 10 10 13 10
0 0 0 0 0 0 0 0 0 0 0 0 0 0 0 0 0 0 0 0 0 0 0 0 0 0 0 0 0 0 0 0 0 0 0 0 0 0 3 3 10 13 13 16
0 0 0 0 0 0 0 0 0 0 0 0 0 0 0 0 0 0 0 0 0 0 0 0 0 0 0 0 0 0 0 0 0 0 0 0 0 0 0 0 0 6 6 10
0 0 0 0 0 0 0 0 0 0 0 0 0 0 0 0 0 0 0 0 0 0 0 0 0 0 0 0 0 0 0 0 0 0 0 0 0 0 0 0 0 0 0 3
0 0 0 0 0 0 0 0 0 0 0 0 0 0 0 0 0 0 0 0 0 0 0 0 0 0 0 0 0 0 0 0 0 0 0 0 0 0 0 0 0 0 0 0
0 0 0 0 0 0 0 0 0 0 0 0 0 0 0 0 0 0 0 0 0 0 0 0 0 0 0 0 0 0 0 0 0 0 0 0 0 0 0 0 0 0 0 0
0 0 0 0 0 0 0 0 0 0 0 0 0 0 0 0 0 0 0 0 0 0 0 0 0 0 0 0 0 0 0 0 0 0 0 0 0 0 0 0 0 0 0 0
0 0 0 0 0 0 0 0 0 0 0 0 0 0 0 0 0 0 0 0 0 0 0 0 0 0 0 0 0 0 0 0 0 0 0 0 0 0 0 0 0 0 0 0
0 0 0 0 0 0 0 0 0 0 0 0 0 0 0 0 0 0 0 0 0 0 0 0 0 0 0 0 0 0 0 0 0 0 0 0 0 0 0 0 0 0 0 0
0 0 0 0 0 0 0 0 0 0 0 0 0 0 0 0 0 0 0 0 0 0 0 0 0 0 0 0 0 0 0 0 0 0 0 0 0 0 0 0 0 0 0 0
0 0 0 0 0 0 0 0 0 0 0 0 0 0 0 0 0 0 0 0 0 0 0 0 0 0 0 0 0 0 0 0 0 0 0 0 0 0 0 0 0 0 0 0
0 0 0 0 0 0 0 0 0 0 0 0 0 0 0 0 0 0 0 0 0 0 0 0 0 0 0 0 0 0 0 0 0 0 0 0 0 0 0 0 0 0 0 0
0 0 0 0 0 0 0 0 0 0 0 0 0 0 0 0 0 0 0 0 0 0 0 0 0 0 0 0 0 0 0 0 0 0 0 0 0 0 0 0 0 0 0 0
0 0 0 0 0 0 0 0 0 0 0 0 0 0 0 0 0 0 0 0 0 0 0 0 0 0 0 0 0 0 0 0 0 0 0 0 0 0 0 0 0 0 0 0
0 0 0 0 0 0 0 0 0 0 0 0 0 0 0 0 0 0 0 0 0 0 0 0 0 0 0 0 0 0 0 0 0 0 0 0 0 0 0 0 0 0 0 0
0 0 0 0 0 0 0 0 0 0 0 0 0 0 0 0 0 0 0 0 0 0 0 0 0 0 0 0 0 0 0 0 0 0 0 0 0 0 0 0 0 0 0 0
0 0 0 0 0 0 0 0 0 0 0 0 0 0 0 0 0 0 0 0 0 0 0 0 0 0 0 0 0 0 0 0 0 0 0 0 0 0 0 0 0 0 0 0
0 0 0 0 0 0 0 0 0 0 0 0 0 0 0 0 0 0 0 0 0 0 0 0 0 0 0 0 0 0 0 0 0 0 0 0 0 0 0 0 0 0 0 0
0 0 0 0 0 0 0 0 0 0 0 0 0 0 0 0 0 0 0 0 0 0 0 0 0 0 0 0 0 0 0 0 0 0 0 0 0 0 0 0 0 0 0 0
0 0 0 0 0 0 0 0 0 0 0 0 0 0 0 0 0 0 0 0 0 0 0 0 0 0 0 0 0 0 0 0 0 0 0 0 0 0 0 0 0 0 0 0
0 0 0 0 0 0 0 0 0 0 0 0 0 0 0 0 0 0 0 0 0 0 0 0 0 0 0 0 0 0 0 0 0 0 0 0 0 0 0 0 0 0 0 0
0 0 0 0 0 0 0 0 0 0 0 0 0 0 0 0 0 0 0 0 0 0 0 0 0 0 0 0 0 0 0 0 0 0 0 0 0 0 0 0 0 0 0 0
0 0 0 0 0 0 0 0 0 0 0 0 0 0 0 0 0 0 0 0 0 0 0 0 0 0 0 0 0 0 0 0 0 0 0 0 0 0 0 0 0 0 0 0
Height
5647 5656 5664 5673 5681 5689 5696 5702 5709 5715 5722 5729 5735 5740 5745 5749 5754 5759 5762 5766 5770 5775 5778 5782 5786 5789 5791 5793 5795 5797 5798 5798 5798 5799 5799 5799 5799 5798 5798 5798 5797 5797 5796 5796
5646 5653 5661 5668 5676 5683 5690 5696 5702 5709 5716 5723 5728 5734 5738 5743 5748 5752 5756 5760 5763 5767 5771 5774 5778 5781 5783 5785 5787 5789 5790 5790 5790 5790 5790 5790 5790 5790 5789 5788 5788 5787 5787 5786
5644 5652 5658 5665 5672 5679 5686 5692 5698 5705 5711 5717 5723 5727 5732 5737 5741 5746 5750 5753 5757 5760 5763 5767 5770 5772 5775 5777 5779 5780 5781 5781 5781 5781 5781 5781 5781 5781 5780 5779 5778 5777 5776 5775
5642 5649 5656 5662 5669 5675 5682 5687 5693 5699 5705 5711 5717 5720 5726 5730 5735 5740 5744 5747 5750 5753 5756 5759 5761 5764 5766 5768 5769 5770 5771 5771 5772 5771 5771 5771 5771 5771 5770 5769 5767 5766 5764 5764
5641 5648 5654 5660 5666 5672 5677 5683 5689 5694 5700 5705 5710 5715 5719 5724 5729 5733 5737 5740 5743 5746 5749 5751 5753 5755 5757 5759 5760 5761 5761 5761 5761 5761 5761 5760 5760 5759 5758 5757 5756 5755 5753 5752
5641 5646 5652 5657 5663 5669 5674 5680 5685 5689 5694 5700 5705 5709 5713 5718 5722 5726 5730 5733 5736 5739 5741 5743 5745 5747 5748 5750 5750 5751 5751 5751 5750 5750 5750 5749 5748 5747 5746 5745 5743 5742 5740 5739
5639 5645 5650 5655 5660 5666 5671 5677 5681 5685 5690 5695 5699 5703 5707 5712 5716 5719 5723 5726 5729 5731 5734 5736 5737 5738 5739 5740 5741 5741 5741 5740 5740 5739 5738 5737 5736 5735 5733 5731 5730 5728 5726 5725
5639 5644 5649 5654 5659 5663 5668 5673 5678 5682 5686 5690 5693 5697 5702 5705 5709 5712 5716 5719 5721 5724 5726 5727 5729 5730 5731 5731 5731 5731 5731 5730 5729 5728 5727 5725 5723 5722 5719 5717 5714 5712 5710 5708
5639 5644 5648 5652 5657 5661 5665 5669 5674 5678 5681 5685 5688 5692 5696 5699 5702 5706 5709 5712 5714 5716 5718 5719 5720 5721 5722 5722 5722 5722 5721 5720 5719 5717 5715 5713 5710 5708 5705 5701 5698 5695 5692 5690
5640 5644 5647 5651 5655 5659 5663 5666 5670 5674 5677 5680 5684 5687 5691 5693 5696 5700 5702 5705 5707 5709 5710 5712 5713 5713 5714 5714 5713 5713 5712 5710 5708 5706 5704 5701 5697 5694 5690 5686 5681 5677 5673 5670
5639 5643 5647 5650 5653 5656 5660 5664 5666 5670 5673 5677 5680 5685 5686 5688 5691 5694 5696 5698 5700 5702 5703 5704 5705 5705 5706 5706 5705 5704 5703 5701 5699 5696 5693 5689 5685 5680 5675 5670 5664 5659 5655 5651
5639 5642 5645 5648 5651 5654 5657 5660 5663 5667 5670 5673 5676 5682 5681 5684 5686 5689 5691 5693 5694 5695 5696 5697 5698 5698 5698 5698 5697 5696 5694 5692 5689 5686 5682 5677 5672 5666 5660 5654 5648 5642 5637 5634
5638 5641 5644 5647 5651 5653 5655 5657 5660 5664 5667 5669 5672 5678 5677 5679 5682 5684 5686 5687 5688 5689 5690 5690 5691 5691 5690 5690 5689 5687 5685 5683 5679 5675 5671 5666 5660 5654 5647 5640 5633 5627 5622 5619
5637 5640 5643 5646 5648 5650 5652 5655 5658 5661 5664 5666 5669 5672 5673 5675 5678 5679 5680 5681 5682 5683 5684 5684 5684 5683 5683 5682 5681 5679 5677 5674 5670 5666 5661 5656 5650 5643 5635 5628 5621 5616 5611 5608
5635 5638 5640 5643 5645 5648 5650 5652 5655 5658 5661 5663 5665 5667 5669 5671 5673 5674 5675 5676 5677 5677 5678 5678 5677 5677 5676 5675 5674 5672 5669 5666 5662 5657 5653 5647 5641 5634 5627 5620 5614 5608 5604 5600
5634 5636 5638 5641 5643 5645 5648 5650 5652 5655 5657 5659 5661 5663 5665 5666 5667 5669 5670 5671 5671 5672 5672 5672 5671 5670 5669 5668 5667 5665 5662 5659 5655 5651 5646 5640 5634 5628 5621 5615 5609 5604 5599 5596
5632 5634 5637 5639 5641 5643 5646 5648 5649 5652 5654 5656 5657 5660 5660 5662 5663 5664 5665 5665 5666 5666 5666 5666 5665 5664 5663 5662 5661 5659 5656 5653 5649 5645 5640 5635 5629 5624 5618 5612 5606 5601 5597 5594
5630 5631 5634 5636 5639 5641 5645 5644 5646 5648 5650 5651 5653 5654 5656 5657 5658 5659 5660 5660 5661 5661 5661 5660 5659 5659 5658 5656 5655 5653 5650 5647 5644 5640 5635 5630 5626 5621 5615 5610 5605 5601 5597 5594
5627 5629 5631 5633 5635 5637 5640 5640 5642 5644 5646 5647 5648 5650 5651 5652 5654 5655 5655 5656 5656 5656 5656 5655 5654 5653 5652 5651 5650 5648 5645 5643 5639 5636 5631 5627 5622 5618 5613 5609 5604 5600 5597 5594
5624 5626 5628 5629 5631 5633 5636 5637 5638 5641 5642 5643 5644 5646 5647 5648 5650 5651 5651 5651 5651 5651 5651 5650 5649 5648 5647 5646 5645 5643 5641 5638 5635 5632 5628 5624 5620 5616 5612 5608 5603 5600 5596 5593
5620 5621 5623 5625 5626 5629 5631 5632 5634 5638 5639 5639 5640 5641 5643 5644 5646 5647 5646 5647 5647 5647 5646 5646 5645 5644 5643 5641 5640 5638 5636 5634 5631 5628 5625 5621 5618 5614 5610 5606 5603 5599 5596 5593
5615 5617 5619 5620 5623 5627 5627 5628 5631 5633 5633 5634 5636 5637 5639 5640 5641 5642 5642 5642 5642 5642 5642 5641 5640 5639 5638 5637 5635 5633 5631 5629 5627 5624 5621 5618 5615 5612 5608 5605 5602 5598 5596 5593
5611 5614 5615 5617 5620 5621 5622 5624 5626 5627 5629 5630 5632 5633 5634 5635 5636 5637 5638 5638 5638 5637 5637 5636 5636 5635 5633 5632 5631 5629 5627 5625 5623 5621 5618 5615 5612 5609 5606 5603 5600 5597 5594 5591
5607 5608 5610 5612 5614 5615 5617 5619 5621 5623 5624 5626 5627 5629 5630 5631 5632 5633 5633 5633 5633 5633 5632 5632 5631 5630 5629 5628 5626 5625 5623 5621 5619 5617 5615 5612 5609 5606 5603 5600 5597 5595 5592 5589
5602 5603 5605 5607 5609 5611 5613 5614 5616 5618 5620 5621 5623 5624 5625 5626 5627 5628 5628 5628 5628 5628 5628 5627 5626 5626 5625 5624 5622 5621 5619 5618 5616 5614 5611 5609 5606 5603 5600 5597 5594 5591 5589 5586
5596 5598 5600 5602 5604 5606 5608 5609 5611 5613 5615 5616 5618 5619 5620 5621 5622 5623 5623 5624 5624 5623 5623 5622 5622 5621 5620 5619 5618 5617 5615 5614 5612 5610 5608 5605 5602 5600 5597 5594 5591 5588 5585 5581
Wind_Speed
38 38 39 41 43 43 43 44 45 45 44 43 43 43 42 42 42 42 42 42 41 41 40 39 39 39 39 39 39 39 39 40 41 42 42 43 43 44 44 44 45 45 45 46
36 35 36 39 41 41 42 43 44 44 43 42 42 42 41 40 41 41 40 40 40 40 39 39 39 39 40 40 40 40 40 41 42 43 44 45 45 46 46 47 47 47 48 48
34 34 35 37 40 41 40 41 42 42 41 41 41 41 40 39 39 40 39 39 39 39 39 39 40 40 40 41 41 41 41 42 42 43 45 46 47 47 48 49 49 50 50 51
32 33 34 35 37 38 38 39 39 40 40 40 40 40 40 39 39 39 39 39 39 39 39 40 40 40 41 41 41 42 42 43 43 44 45 46 46 47 48 50 51 52 53 53
31 29 31 32 34 35 36 36 36 37 39 39 39 39 39 38 38 38 38 38 38 39 39 40 40 40 41 41 41 42 42 43 44 44 45 46 47 48 49 50 51 52 54 55
28 27 27 29 31 32 33 33 34 35 36 37 36 37 37 36 35 36 36 37 37 38 38 39 39 40 40 40 41 41 42 43 44 44 45 46 47 48 50 51 52 53 55 56
26 27 26 27 27 29 30 31 31 32 33 34 34 34 35 34 34 33 34 34 35 35 36 36 37 38 38 39 39 40 40 42 43 44 45 46 48 50 51 53 55 56 57 58
25 25 26 26 24 26 27 28 29 30 31 31 31 31 32 31 31 31 31 32 32 33 33 34 35 35 36 36 37 38 40 41 42 43 45 47 48 51 53 55 57 59 60 62
24 23 24 24 24 24 25 24 25 26 27 27 28 28 28 28 28 28 29 30 30 31 31 32 33 33 34 35 36 37 38 40 41 43 45 47 49 52 54 56 59 61 63 65
22 22 22 22 22 22 23 23 24 24 23 23 24 25 25 25 26 26 27 27 28 29 29 30 30 31 32 33 34 35 37 39 41 43 45 47 50 52 54 57 59 61 63 64
19 20 20 21 21 21 21 21 22 22 22 21 22 22 23 23 24 25 25 26 26 27 27 28 29 30 31 32 32 34 35 38 40 42 44 46 49 51 53 55 57 58 60 61
17 18 18 19 20 20 20 20 21 21 20 20 20 21 22 23 23 23 24 24 25 26 27 27 28 29 30 30 32 33 35 36 38 40 42 44 46 48 49 51 52 53 54 55
16 16 17 18 18 18 19 19 20 20 19 19 20 20 21 21 22 22 22 23 24 25 25 26 27 28 29 29 30 31 32 33 34 35 36 38 40 42 43 44 45 46 47 47
15 15 16 16 16 16 17 18 18 18 18 18 19 19 20 20 20 20 21 22 23 24 24 24 25 26 26 26 26 27 28 28 30 31 32 33 34 35 36 36 37 36 37 37
15 15 16 16 16 16 16 17 17 17 18 18 18 19 19 18 18 19 20 21 21 22 22 22 22 22 23 23 23 23 24 24 25 26 26 27 28 29 29 29 28 27 28 27
15 16 16 16 16 16 16 16 16 17 17 17 18 18 17 17 17 17 18 18 19 19 19 19 19 19 20 20 20 20 20 20 21 22 22 23 24 25 25 23 22 20 20 19
15 16 16 16 16 16 15 16 16 16 17 17 17 17 17 16 17 16 16 16 17 17 17 17 17 17 17 17 17 17 17 18 18 18 19 20 21 21 21 19 17 16 14 13
15 16 16 17 17 16 15 16 16 16 16 16 17 17 16 16 16 15 15 15 15 15 15 16 16 16 16 15 15 16 15 16 16 17 17 18 18 18 18 17 15 14 12 11
14 15 16 17 17 16 16 16 16 16 16 16 16 16 16 15 15 14 14 14 14 15 15 15 15 15 15 14 14 15 15 15 15 15 16 16 16 16 16 15 14 12 11 11
16 16 16 16 17 17 17 17 16 16 16 16 16 15 15 14 14 14 13 13 13 14 14 14 14 14 14 14 14 14 14 14 13 14 14 14 15 15 14 14 14 13 11 11
17 17 17 17 17 17 17 17 17 16 16 15 16 16 15 14 14 13 13 13 13 13 13 13 13 13 13 13 13 13 13 13 12 13 13 13 14 14 13 13 13 12 12 11
17 18 18 18 19 18 18 17 17 16 15 15 16 15 15 15 14 13 13 13 13 13 13 13 13 12 12 13 13 13 13 13 12 13 13 13 13 13 13 13 13 13 12 12
17 18 18 18 18 18 18 18 17 17 17 16 16 16 15 15 14 14 13 13 13 13 13 13 13 13 13 13 12 12 12 12 12 12 12 13 13 13 13 13 13 13 14 14
18 18 18 18 18 18 18 18 18 18 18 17 17 17 16 15 15 14 14 14 13 13 13 13 13 13 13 12 12 11 11 11 11 12 12 13 13 14 14 14 14 15 15 15
19 19 19 19 19 19 19 19 18 19 19 18 18 17 17 16 16 15 15 14 13 13 13 13 13 13 13 12 12 12 11 11 12 12 13 14 14 14 15 15 16 16 17 18
19 19 20 20 20 20 20 20 20 19 19 19 19 19 18 18 17 16 16 15 14 14 14 13 13 13 13 12 12 13 12 12 13 13 14 15 15 16 16 17 18 19 20 21
Wind_Direction
198 200 204 205 207 210 212 215 217 219 220 222 223 224 225 228 231 234 237 240 242 244 244 245 244 245 247 249 252 254 257 260 262 264 265 266 267 268 268 269 269 270 270 270
195 198 200 203 205 208 211 215 217 219 220 222 223 225 226 228 230 233 237 240 243 245 247 248 248 249 250 252 254 256 259 261 262 264 264 265 266 266 267 268 269 271 271 270
194 197 198 201 204 208 212 215 218 220 221 224 225 227 228 229 231 234 236 240 243 246 248 250 251 252 253 255 257 259 261 262 264 265 266 266 267 267 268 268 269 269 269 269
191 195 198 201 204 207 212 215 218 220 222 224 226 230 230 231 233 235 238 240 243 247 249 252 254 256 257 259 261 262 264 265 266 266 267 267 268 268 268 268 268 269 269 269
188 191 196 200 204 207 212 215 218 220 223 226 228 232 233 234 236 238 240 242 245 248 250 253 255 258 259 261 263 264 265 266 267 267 268 269 269 269 269 268 268 269 269 268
187 190 192 197 202 206 210 213 216 220 223 226 228 232 235 235 237 239 241 243 245 248 251 254 256 258 260 262 263 265 266 267 268 269 270 270 270 270 270 270 269 269 268 268
183 189 193 196 201 204 208 211 214 219 222 226 227 232 235 236 238 239 241 243 245 248 251 254 256 258 260 262 264 266 268 269 271 272 273 273 274 274 273 273 272 271 270 268
186 188 192 196 200 201 204 209 214 218 222 225 227 231 234 235 237 239 241 243 245 248 251 253 255 258 260 263 266 268 270 272 274 275 276 276 276 276 276 275 274 273 272 270
190 193 196 199 201 202 203 207 212 217 221 224 226 230 232 233 234 236 239 241 244 247 249 252 255 258 261 265 268 271 273 275 276 277 278 279 280 280 280 279 278 276 274 272
192 196 197 201 205 206 207 209 212 215 218 222 224 226 228 229 231 233 236 238 242 245 248 252 256 260 264 267 270 273 275 278 279 281 282 283 283 283 283 282 281 279 277 274
194 200 202 204 206 210 211 213 215 217 218 219 220 221 222 224 226 229 233 237 242 246 250 254 258 262 266 269 272 275 278 280 282 284 284 285 285 285 285 284 283 281 279 275
196 201 204 207 209 212 213 215 215 215 214 216 218 219 219 222 225 230 234 239 244 248 253 258 262 266 269 271 275 278 281 283 285 286 287 288 290 289 288 287 286 283 280 277
198 201 205 207 209 211 213 214 214 213 211 212 214 218 219 224 228 233 238 243 247 251 256 261 265 268 271 274 277 280 284 287 289 290 292 294 296 296 294 292 289 286 282 278
199 201 205 208 209 210 210 211 210 210 210 212 216 221 224 228 232 237 241 245 249 254 259 263 266 270 273 275 278 282 287 291 294 296 298 301 305 305 303 300 296 291 286 281
203 204 205 206 208 209 209 210 209 210 211 214 219 227 231 234 237 240 243 247 251 255 259 264 268 271 273 275 279 284 290 294 299 303 305 309 312 314 311 308 305 299 293 285
205 205 205 206 207 210 212 213 213 215 217 222 228 234 238 241 242 243 246 249 253 258 262 266 269 271 273 276 280 286 292 298 306 310 312 316 318 320 320 317 313 309 302 293
209 210 211 212 214 214 216 218 219 221 225 229 234 238 241 245 246 247 249 252 257 261 264 268 271 272 274 277 281 288 294 300 307 314 319 322 325 326 325 324 321 319 313 302
216 215 216 217 219 222 221 222 225 228 231 234 237 240 242 245 246 247 250 254 257 261 265 270 273 273 274 276 281 288 295 302 308 315 321 326 328 332 333 334 330 328 328 323
221 221 221 222 225 226 226 228 230 232 234 236 239 242 241 241 244 246 251 255 258 262 268 271 274 274 273 276 282 289 296 302 309 316 322 325 328 332 336 337 339 335 328 327
228 228 229 229 230 230 229 231 234 235 237 237 238 237 235 238 241 245 250 254 259 264 267 271 273 274 274 277 282 289 295 300 306 315 322 326 329 329 331 336 339 341 337 332
232 232 233 233 232 232 232 234 234 235 236 235 234 232 233 236 240 245 249 254 261 264 268 271 273 274 276 279 282 286 292 296 303 312 317 323 327 329 331 334 337 338 338 335
235 234 234 234 234 233 232 234 234 235 235 233 232 231 232 235 240 244 251 258 263 265 267 269 272 275 279 281 284 286 290 294 300 307 312 318 323 326 329 332 333 333 334 332
238 236 235 235 235 234 233 233 232 232 233 233 233 233 234 237 242 247 254 260 264 265 266 269 274 277 280 283 285 286 289 293 299 305 310 315 319 324 327 328 328 328 328 327
240 238 236 235 234 233 232 231 231 232 234 235 235 236 238 241 245 250 255 259 262 264 267 272 275 278 280 281 282 284 288 292 298 305 310 314 316 319 322 324 324 323 323 322
242 240 237 236 235 233 232 232 233 233 235 236 237 239 241 244 247 251 255 258 261 264 268 270 274 276 277 279 279 281 285 291 298 304 308 312 315 318 320 320 319 319 319 318
241 239 237 236 236 234 233 234 234 235 236 237 238 240 243 246 248 251 254 257 261 264 268 269 272 275 275 275 278 279 283 289 296 300 304 309 312 315 316 316 316 316 317 317